period_start,C,m1,H,J0,J1,J2,J3,J4,J5,JA,JB,JC,JD,JJ,JK,JN,#
2017-02-04 00:01:49,0.12,3.36,0.00,21.52,24.97,28.59,14.80,49.58,1029.31,2035.97,2365.77,2308.94,2616.57,600.13,606.66,15.59,0000 0000 0000 0000 000000
2017-02-04 00:06:51,0.11,3.37,0.00,21.50,24.97,28.60,14.88,49.77,1029.32,2035.97,2364.21,2307.85,2615.27,600.21,606.85,15.64,0000 0000 0000 0000 000000
2017-02-04 00:11:52,0.13,3.37,0.00,21.48,24.97,28.61,14.79,49.69,1029.32,2035.96,2362.60,2306.73,2613.87,599.74,606.37,15.69,0000 0000 0000 0000 000000
2017-02-04 00:16:53,0.12,3.38,0.00,21.52,24.97,28.61,14.83,49.65,1029.37,2035.96,2360.92,2305.65,2612.54,600.11,606.65,15.74,0000 0000 0000 0000 000000
2017-02-04 00:21:54,0.11,3.39,0.00,21.51,24.97,28.61,14.79,49.59,1029.51,2035.93,2359.34,2304.56,2611.17,600.02,606.55,15.80,0000 0000 0000 0000 000000
2017-02-04 00:26:55,0.12,3.39,0.00,21.46,24.97,28.63,14.82,49.67,1029.60,2035.88,2357.59,2303.37,2609.66,600.14,607.06,15.85,0000 0000 0000 0000 000000
2017-02-04 00:31:56,0.10,3.40,0.00,21.48,24.97,28.60,14.82,49.67,1029.75,2035.81,2355.94,2302.35,2608.40,600.11,606.77,15.90,0000 0000 0000 0000 000000
2017-02-04 00:36:58,0.12,3.40,0.00,21.51,24.97,28.57,14.87,49.61,1029.80,2035.78,2354.41,2301.26,2606.97,600.07,606.89,15.95,0000 0000 0000 0000 000000
2017-02-04 00:41:59,0.12,3.41,0.00,21.47,24.97,28.58,14.78,49.54,1029.80,2035.89,2352.82,2300.23,2605.74,600.13,607.03,16.00,0000 0000 0000 0000 000000
2017-02-04 00:47:01,0.11,3.42,0.00,21.44,24.97,28.57,14.80,49.67,1029.80,2035.89,2351.26,2299.14,2604.39,599.75,606.65,16.05,0000 0000 0000 0000 000000
2017-02-04 00:52:02,0.13,3.42,0.00,21.48,24.97,28.56,14.81,49.71,1029.80,2035.92,2349.63,2298.01,2603.03,599.70,606.64,16.10,0000 0000 0000 0000 000000
2017-02-04 00:57:04,0.14,3.43,0.00,21.47,24.97,28.56,14.73,49.63,1029.81,2035.95,2347.92,2296.78,2601.57,599.80,606.62,16.15,0000 0000 0000 0000 000000
2017-02-04 01:02:05,0.13,3.44,0.00,21.42,24.97,28.55,14.84,49.86,1029.81,2035.94,2346.08,2295.55,2599.88,599.84,606.82,16.20,0000 0000 0000 0000 000000
2017-02-04 01:07:06,0.19,3.44,0.00,21.45,24.97,28.53,14.82,49.61,1029.84,2035.95,2344.21,2293.64,2597.82,600.04,607.02,16.25,0000 0000 0000 0000 000000
2017-02-04 01:12:08,0.12,3.45,0.00,21.48,24.97,28.55,14.73,49.69,1029.92,2035.96,2342.40,2292.26,2596.10,599.43,606.37,16.30,0000 0000 0000 0000 000000
2017-02-04 01:17:09,0.13,3.46,0.00,21.44,24.97,28.56,14.86,49.73,1030.15,2035.95,2340.68,2291.03,2594.73,599.87,607.02,16.35,0000 0000 0000 0000 000000
2017-02-04 01:22:11,0.13,3.47,0.00,21.42,24.97,28.56,14.87,49.75,1030.22,2035.95,2338.96,2289.83,2593.23,600.24,607.50,16.40,0000 0000 0000 0000 000000
2017-02-04 01:27:12,0.14,3.47,0.00,21.46,24.97,28.55,14.86,49.75,1030.27,2035.98,2337.36,2288.68,2591.80,600.40,607.62,16.45,0000 0000 0000 0000 000000
2017-02-04 01:32:13,0.12,3.48,0.00,21.47,24.96,28.55,14.82,49.63,1030.29,2035.99,2335.74,2287.64,2590.45,600.16,607.34,16.50,0000 0000 0000 0000 000000
2017-02-04 01:37:14,0.10,3.48,0.00,21.43,24.96,28.55,14.78,49.60,1030.29,2035.98,2334.18,2286.51,2589.08,599.95,607.10,16.55,0000 0000 0000 0000 000000
2017-02-04 01:42:15,0.13,3.49,0.00,21.43,24.95,28.53,14.75,49.72,1030.29,2035.96,2332.62,2285.46,2587.76,599.95,607.14,16.60,0000 0000 0000 0000 000000
2017-02-04 01:47:16,0.11,3.50,0.00,21.46,24.95,28.53,14.84,49.66,1030.29,2035.96,2331.08,2284.43,2586.49,600.15,607.43,16.65,0000 0000 0000 0000 000000
2017-02-04 01:52:18,0.10,3.50,0.00,21.43,24.95,28.55,14.73,49.67,1030.29,2035.96,2329.57,2283.41,2585.19,599.80,607.07,16.70,0000 0000 0000 0000 000000
2017-02-04 01:57:19,0.10,3.51,0.00,21.41,24.95,28.52,14.82,49.68,1030.29,2035.95,2328.09,2282.41,2583.93,600.00,607.32,16.75,0000 0000 0000 0000 000000
2017-02-04 02:02:21,0.12,3.51,0.00,21.44,24.95,28.54,14.82,49.77,1030.29,2035.95,2326.64,2281.48,2582.73,600.13,607.37,16.80,0000 0000 0000 0000 000000
2017-02-04 02:07:22,0.09,3.52,0.00,21.46,24.95,28.51,14.78,49.77,1030.30,2035.98,2325.30,2280.58,2581.58,599.89,607.09,16.85,0000 0000 0000 0000 000000
2017-02-04 02:12:24,0.12,3.52,0.00,21.42,24.95,28.49,14.88,49.82,1030.31,2035.97,2323.76,2279.38,2580.21,600.41,607.73,16.90,0000 0000 0000 0000 000000
2017-02-04 02:17:25,0.10,3.53,0.00,21.43,24.94,28.50,14.81,49.81,1030.30,2035.98,2322.33,2278.47,2579.00,600.02,607.25,16.95,0000 0000 0000 0000 000000
2017-02-04 02:22:26,0.12,3.53,0.00,21.46,24.94,28.49,14.76,49.70,1030.32,2035.97,2320.82,2277.49,2577.79,599.90,607.02,17.00,0000 0000 0000 0000 000000
2017-02-04 02:27:28,0.10,3.54,0.00,21.41,24.93,28.49,14.84,49.78,1030.33,2035.98,2319.48,2276.58,2576.62,599.98,607.30,17.05,0000 0000 0000 0000 000000
2017-02-04 02:32:29,0.10,3.55,0.00,21.39,24.92,28.52,14.77,49.76,1030.45,2035.98,2318.02,2275.67,2575.44,599.75,607.19,17.10,0000 0000 0000 0000 000000
2017-02-04 02:37:30,0.11,3.55,0.00,21.42,24.92,28.53,14.81,49.84,1030.64,2035.97,2316.59,2274.70,2574.35,599.90,607.31,17.15,0000 0000 0000 0000 000000
2017-02-04 02:42:32,0.08,3.56,0.00,21.44,24.92,28.51,14.82,49.77,1030.75,2035.98,2315.30,2273.84,2573.18,599.92,607.44,17.20,0000 0000 0000 0000 000000
2017-02-04 02:47:33,0.10,3.56,0.00,21.41,24.92,28.49,14.82,49.70,1030.77,2035.99,2313.86,2272.93,2572.04,600.17,607.76,17.25,0000 0000 0000 0000 000000
2017-02-04 02:52:34,0.11,3.57,0.00,21.39,24.92,28.51,14.86,49.82,1030.78,2035.98,2312.43,2271.93,2570.83,600.00,607.67,17.30,0000 0000 0000 0000 000000
2017-02-04 02:57:36,0.12,3.57,0.00,21.43,24.92,28.48,14.80,49.77,1030.78,2035.99,2310.89,2270.84,2569.54,599.77,607.30,17.35,0000 0000 0000 0000 000000
2017-02-04 03:02:37,0.10,3.58,0.00,21.43,24.91,28.48,14.82,49.78,1030.78,2035.99,2309.55,2269.92,2568.31,599.95,607.56,17.40,0000 0000 0000 0000 000000
2017-02-04 03:07:38,0.10,3.58,0.00,21.39,24.90,28.48,14.88,49.88,1030.78,2035.99,2308.04,2268.95,2567.11,599.82,607.41,17.45,0000 0000 0000 0000 000000
2017-02-04 03:12:39,0.12,3.59,0.00,21.40,24.90,28.52,14.84,49.75,1030.78,2035.98,2306.54,2267.95,2565.75,600.43,608.03,17.50,0000 0000 0000 0000 000000
2017-02-04 03:17:41,0.10,3.60,0.00,21.46,24.90,28.50,14.84,49.77,1030.78,2035.98,2305.13,2267.00,2564.59,599.88,607.36,17.55,0000 0000 0000 0000 000000
2017-02-04 03:22:42,0.11,3.60,0.00,21.43,24.90,28.49,14.88,49.75,1030.78,2035.98,2303.65,2266.04,2563.43,600.17,607.86,17.60,0000 0000 0000 0000 000000
2017-02-04 03:27:43,0.09,3.61,0.00,21.39,24.90,28.51,14.86,49.91,1030.78,2035.99,2302.35,2265.08,2562.20,600.08,607.73,17.65,0000 0000 0000 0000 000000
2017-02-04 03:32:44,0.12,3.61,0.00,21.43,24.90,28.50,14.84,49.83,1030.78,2035.98,2300.85,2264.10,2560.97,600.26,607.78,17.70,0000 0000 0000 0000 000000
2017-02-04 03:37:45,0.10,3.62,0.00,21.45,24.90,28.50,14.82,49.78,1030.78,2035.99,2299.49,2263.10,2559.76,600.15,607.61,17.75,0000 0000 0000 0000 000000
2017-02-04 03:42:46,0.10,3.62,0.00,21.40,24.90,28.48,14.76,49.89,1030.78,2035.99,2297.99,2262.10,2558.72,599.67,607.36,17.80,0000 0000 0000 0000 000000
2017-02-04 03:47:47,0.11,3.63,0.00,21.38,24.90,28.49,14.87,49.92,1030.78,2035.99,2296.53,2261.08,2557.54,600.21,607.90,17.85,0000 0000 0000 0000 000000
2017-02-04 03:52:48,0.10,3.64,0.00,21.44,24.89,28.50,14.77,49.81,1030.79,2035.99,2295.09,2260.14,2556.39,599.88,607.45,17.90,0000 0000 0000 0000 000000
2017-02-04 03:57:49,0.11,3.64,0.00,21.41,24.89,28.48,14.80,49.74,1030.78,2035.98,2293.67,2259.23,2555.21,599.98,607.54,17.95,0000 0000 0000 0000 000000
2017-02-04 04:02:51,0.10,3.65,0.00,21.37,24.88,28.48,14.92,49.91,1030.79,2035.99,2292.34,2258.36,2554.03,600.32,608.04,18.00,0000 0000 0000 0000 000000
2017-02-04 04:07:52,0.11,3.65,0.00,21.40,24.88,28.49,14.83,49.85,1030.80,2035.99,2290.82,2257.33,2552.82,600.15,607.73,18.05,0000 0000 0000 0000 000000
2017-02-04 04:12:54,0.10,3.66,0.00,21.43,24.87,28.45,14.74,49.70,1030.80,2035.99,2289.47,2256.42,2551.68,599.85,607.40,18.10,0000 0000 0000 0000 000000
2017-02-04 04:17:55,0.10,3.66,0.00,21.40,24.87,28.46,14.85,49.80,1030.79,2035.99,2288.05,2255.52,2550.50,599.98,607.62,18.15,0000 0000 0000 0000 000000
2017-02-04 04:22:56,0.11,3.67,0.00,21.37,24.87,28.44,14.80,49.88,1030.80,2035.99,2286.64,2254.61,2549.41,599.98,607.73,18.20,0000 0000 0000 0000 000000
2017-02-04 04:27:58,0.09,3.67,0.00,21.37,24.87,28.43,14.90,49.92,1030.87,2035.99,2285.23,2253.70,2548.28,600.06,607.78,18.25,0000 0000 0000 0000 000000
2017-02-04 04:32:59,0.09,3.68,0.00,21.39,24.87,28.47,14.85,49.90,1031.01,2035.99,2283.88,2252.84,2547.18,600.06,607.81,18.30,0000 0000 0000 0000 000000
2017-02-04 04:38:00,0.10,3.68,0.00,21.36,24.87,28.47,14.83,49.88,1031.18,2035.99,2282.51,2251.93,2546.02,600.05,608.03,18.35,0000 0000 0000 0000 000000
2017-02-04 04:43:02,0.10,3.69,0.00,21.33,24.87,28.46,14.88,49.92,1031.24,2035.99,2281.12,2251.00,2544.86,600.04,608.04,18.40,0000 0000 0000 0000 000000
2017-02-04 04:48:03,0.11,3.69,0.00,21.38,24.87,28.44,14.88,49.90,1031.24,2035.99,2279.67,2250.06,2543.76,600.12,608.06,18.45,0000 0000 0000 0000 000000
2017-02-04 04:53:04,0.11,3.70,0.00,21.38,24.87,28.47,14.87,49.80,1031.26,2035.99,2278.34,2249.09,2542.57,600.14,607.96,18.50,0000 0000 0000 0000 000000
2017-02-04 04:58:05,0.11,3.71,0.00,21.33,24.86,28.43,14.87,49.86,1031.26,2035.99,2276.91,2248.18,2541.40,600.21,608.07,18.55,0000 0000 0000 0000 000000
2017-02-04 05:03:07,0.11,3.71,0.00,21.33,24.85,28.43,14.85,49.86,1031.26,2035.99,2275.54,2247.26,2540.29,600.10,608.14,18.60,0000 0000 0000 0000 000000
2017-02-04 05:08:08,0.09,3.72,0.00,21.38,24.85,28.42,14.91,49.77,1031.27,2035.99,2274.22,2246.42,2539.20,600.32,608.28,18.65,0000 0000 0000 0000 000000
2017-02-04 05:13:09,0.11,3.72,0.00,21.38,24.85,28.39,14.78,49.89,1031.28,2035.99,2272.81,2245.53,2538.05,599.56,607.45,18.70,0000 0000 0000 0000 000000
2017-02-04 05:18:11,0.10,3.73,0.00,21.33,24.85,28.41,14.90,49.76,1031.28,2035.99,2271.57,2244.68,2536.94,600.34,608.40,18.75,0000 0000 0000 0000 000000
2017-02-04 05:23:12,0.11,3.73,0.00,21.33,24.85,28.40,14.81,49.80,1031.31,2035.99,2270.03,2243.68,2535.80,599.75,607.80,18.80,0000 0000 0000 0000 000000
2017-02-04 05:28:13,0.11,3.74,0.00,21.36,24.85,28.41,14.83,49.83,1031.36,2035.99,2268.63,2242.73,2534.61,600.00,608.05,18.85,0000 0000 0000 0000 000000
2017-02-04 05:33:15,0.09,3.74,0.00,21.34,24.85,28.43,14.83,49.81,1031.41,2035.99,2267.22,2241.83,2533.45,600.44,608.46,18.90,0000 0000 0000 0000 000000
2017-02-04 05:38:16,0.12,3.75,0.00,21.29,24.84,28.40,14.86,49.83,1031.50,2035.99,2265.76,2240.84,2532.28,600.14,608.45,18.96,0000 0000 0000 0000 000000
2017-02-04 05:43:17,0.10,3.76,0.00,21.31,24.84,28.39,14.86,49.81,1031.67,2036.00,2264.39,2239.83,2530.99,599.98,608.42,19.01,0000 0000 0000 0000 000000
2017-02-04 05:48:18,0.13,3.76,0.00,21.35,24.83,28.40,14.77,49.87,1031.74,2036.00,2262.82,2238.87,2529.68,599.67,608.04,19.06,0000 0000 0000 0000 000000
2017-02-04 05:53:19,0.11,3.77,0.00,21.31,24.82,28.43,14.84,49.90,1031.75,2036.00,2261.34,2237.87,2528.44,599.88,608.23,19.11,0000 0000 0000 0000 000000
2017-02-04 05:58:20,0.12,3.77,0.00,21.28,24.82,28.40,14.87,49.82,1031.75,2036.00,2259.83,2236.84,2527.19,600.20,608.66,19.16,0000 0000 0000 0000 000000
2017-02-04 06:03:22,0.11,3.78,0.00,21.32,24.82,28.42,14.83,49.88,1031.76,2036.00,2258.44,2235.82,2525.84,599.75,608.16,19.21,0000 0000 0000 0000 000000
2017-02-04 06:08:23,0.12,3.78,0.00,21.36,24.82,28.41,14.85,49.87,1031.77,2036.00,2256.93,2234.78,2524.60,600.43,608.69,19.26,0000 0000 0000 0000 000000
2017-02-04 06:13:25,0.12,3.79,0.00,21.30,24.82,28.41,14.79,49.85,1031.78,2036.00,2255.50,2233.69,2523.37,599.59,608.07,19.31,0000 0000 0000 0000 000000
2017-02-04 06:18:26,0.11,3.80,0.00,21.27,24.82,28.38,14.84,49.81,1031.86,2036.00,2253.97,2232.66,2521.97,600.56,609.07,19.36,0000 0000 0000 0000 000000
2017-02-04 06:23:27,0.12,3.80,0.00,21.32,24.82,28.39,14.84,49.90,1032.05,2036.00,2252.55,2231.70,2520.77,599.80,608.32,19.41,0000 0000 0000 0000 000000
2017-02-04 06:28:28,0.13,3.81,0.00,21.31,24.81,28.37,14.87,49.90,1032.22,2036.00,2251.00,2230.61,2519.49,600.14,608.80,19.46,0000 0000 0000 0000 000000
2017-02-04 06:33:30,0.12,3.81,0.00,21.25,24.80,28.36,14.85,49.85,1032.24,2036.00,2249.50,2229.55,2518.10,600.03,608.89,19.51,0000 0000 0000 0000 000000
2017-02-04 06:38:31,0.13,3.82,0.00,21.28,24.80,28.35,14.86,49.93,1032.24,2036.01,2247.94,2228.42,2516.75,600.10,608.84,19.56,0000 0000 0000 0000 000000
2017-02-04 06:43:32,0.12,3.83,0.00,21.34,24.80,28.34,14.88,49.84,1032.24,2036.01,2246.43,2227.25,2515.41,600.18,608.65,19.61,0000 0000 0000 0000 000000
2017-02-04 06:48:34,0.12,3.84,0.00,21.30,24.80,28.36,14.85,49.85,1032.25,2036.01,2244.84,2226.09,2514.01,600.42,609.13,19.66,0000 0000 0000 0000 000000
2017-02-04 06:53:35,0.12,3.84,0.00,21.25,24.80,28.34,14.77,49.83,1032.24,2036.01,2243.32,2224.98,2512.63,599.94,608.81,19.71,0000 0000 0000 0000 000000
2017-02-04 06:58:36,0.12,3.85,0.00,21.29,24.80,28.36,14.89,49.76,1032.26,2036.01,2241.75,2223.91,2511.33,599.96,608.73,19.76,0000 0000 0000 0000 000000
2017-02-04 07:03:37,0.12,3.85,0.00,21.33,24.79,28.35,14.86,49.82,1032.36,2036.02,2240.34,2222.85,2509.99,600.06,608.78,19.81,0000 0000 0000 0000 000000
2017-02-04 07:08:38,0.14,3.86,0.00,21.29,24.79,28.35,14.91,49.94,1032.56,2036.02,2238.76,2221.69,2508.63,600.11,609.05,19.86,0000 0000 0000 0000 000000
2017-02-04 07:13:39,0.13,3.87,0.00,21.26,24.77,28.34,14.85,49.96,1032.65,2036.02,2237.19,2220.52,2507.23,600.08,609.08,19.91,0000 0000 0000 0000 000000
2017-02-04 07:18:40,0.13,3.87,0.00,21.31,24.77,28.35,14.90,49.88,1032.66,2036.03,2235.59,2219.44,2505.80,600.32,609.16,19.96,0000 0000 0000 0000 000000
2017-02-04 07:23:41,0.12,3.88,0.00,21.32,24.77,28.32,14.79,49.92,1032.71,2036.05,2234.07,2218.30,2504.50,599.97,608.89,20.01,0000 0000 0000 0000 000000
2017-02-04 07:28:43,0.12,3.89,0.00,21.26,24.77,28.35,14.90,49.88,1032.73,2036.05,2232.58,2217.11,2503.09,600.22,609.28,20.06,0000 0000 0000 0000 000000
2017-02-04 07:33:44,0.13,3.89,0.00,21.27,24.77,28.34,14.78,49.92,1032.73,2036.05,2230.98,2216.01,2501.65,599.47,608.54,20.11,0000 0000 0000 0000 000000
2017-02-04 07:38:46,0.12,3.90,0.00,21.31,24.77,28.31,14.81,49.93,1032.73,2036.03,2229.42,2214.87,2500.29,599.67,608.72,20.16,0000 0000 0000 0000 000000
2017-02-04 07:43:47,0.10,3.91,0.00,21.29,24.77,28.36,14.84,49.94,1032.73,2036.04,2227.99,2213.88,2499.04,599.87,608.84,20.21,0000 0000 0000 0000 000000
2017-02-04 07:48:49,0.13,3.91,0.00,21.25,24.77,28.34,14.84,49.91,1032.73,2036.06,2226.58,2212.83,2497.85,599.86,609.06,20.26,0000 0000 0000 0000 000000
2017-02-04 07:53:50,0.11,3.92,0.00,21.26,24.75,28.37,14.88,49.92,1032.75,2036.07,2225.20,2211.82,2496.65,599.89,609.12,20.31,0000 0000 0000 0000 000000
2017-02-04 07:58:52,0.11,3.92,0.00,21.31,24.75,28.34,14.79,49.76,1032.84,2036.15,2223.76,2210.90,2495.59,599.95,608.96,20.36,0000 0000 0000 0000 000000
2017-02-04 08:03:53,0.10,3.93,0.00,21.26,24.75,28.35,14.81,49.88,1032.97,2036.13,2222.34,2209.90,2494.51,599.97,609.09,20.41,0000 0000 0000 0000 000000
2017-02-04 08:08:54,0.12,3.94,0.00,21.23,24.75,28.33,14.89,49.85,1033.11,2036.12,2220.83,2208.86,2493.28,600.27,609.61,20.46,0000 0000 0000 0000 000000
2017-02-04 08:13:55,0.13,3.94,0.00,21.27,24.75,28.29,14.89,49.89,1033.15,2036.11,2219.40,2207.80,2491.96,600.08,609.26,20.51,0000 0000 0000 0000 000000
2017-02-04 08:18:57,0.14,3.95,0.00,21.29,24.75,28.27,14.85,49.95,1033.16,2036.32,2217.93,2206.84,2490.77,600.04,609.27,20.56,0000 0000 0000 0000 000000
2017-02-04 08:23:57,0.11,3.96,0.00,21.25,24.75,28.32,14.82,49.97,1033.19,2036.36,2216.49,2205.83,2489.56,600.02,609.37,20.61,0000 0000 0000 0000 000000
2017-02-04 08:28:59,0.11,3.96,0.00,21.21,24.74,28.29,14.89,49.88,1033.13,2036.21,2214.91,2204.70,2488.21,600.51,609.91,20.66,0000 0000 0000 0000 000000
2017-02-04 08:34:00,0.14,3.97,0.00,21.25,24.73,28.29,14.85,49.94,1033.19,2036.21,2213.37,2203.57,2486.73,599.76,609.12,20.71,0000 0000 0000 0000 000000
2017-02-04 08:39:02,0.15,3.98,0.00,21.25,24.72,28.29,14.80,49.92,1033.22,2036.32,2211.84,2202.41,2485.40,600.01,609.37,20.76,0000 0000 0000 0000 000000
2017-02-04 08:44:03,0.13,3.98,0.00,21.20,24.72,28.30,14.97,49.95,1033.22,2036.60,2210.39,2201.38,2484.22,600.38,609.85,20.81,0000 0000 0000 0000 000000
2017-02-04 08:49:04,0.11,3.99,0.00,21.19,24.72,28.29,14.85,50.01,1033.22,2036.62,2208.92,2200.46,2482.98,599.89,609.38,20.86,0000 0000 0000 0000 000000
2017-02-04 08:54:05,0.15,4.00,0.00,21.24,24.72,28.29,14.82,49.94,1033.22,2036.71,2207.50,2199.39,2481.73,599.96,609.37,20.91,0000 0000 0000 0000 000000
2017-02-04 08:59:06,0.12,4.00,0.00,21.24,24.72,28.30,14.88,50.00,1033.22,2036.71,2205.90,2198.32,2480.47,599.63,608.87,20.96,0000 0000 0000 0000 000000
2017-02-04 09:04:08,0.14,4.01,0.00,21.18,24.71,28.27,14.92,50.08,1033.22,2036.70,2204.34,2197.07,2479.04,600.13,609.65,21.01,0000 0000 0000 0000 000000
2017-02-04 09:09:09,0.17,4.02,0.00,21.20,24.70,28.29,14.88,49.93,1033.22,2036.69,2202.45,2195.54,2477.04,600.08,609.56,21.06,0000 0000 0000 0000 000000
2017-02-04 09:14:10,0.13,4.03,0.00,21.23,24.70,28.25,14.89,49.91,1033.23,2036.81,2200.92,2194.50,2475.83,599.97,609.39,21.11,0000 0000 0000 0000 000000
2017-02-04 09:19:12,0.13,4.03,0.00,21.22,24.70,28.26,14.99,49.93,1033.25,2036.88,2199.52,2193.49,2474.62,600.26,609.73,21.16,0000 0000 0000 0000 000000
2017-02-04 09:24:13,0.11,4.04,0.00,21.19,24.70,28.22,14.91,49.99,1033.30,2036.86,2198.03,2192.40,2473.39,599.99,609.52,21.21,0000 0000 0000 0000 000000
2017-02-04 09:29:14,0.10,4.04,0.00,21.21,24.70,28.24,14.91,49.92,1033.35,2036.74,2196.59,2191.43,2472.13,600.20,609.73,21.26,0000 0000 0000 0000 000000
2017-02-04 09:34:15,0.13,4.05,0.00,21.26,24.69,28.25,14.87,49.88,1033.44,2036.87,2195.14,2190.43,2470.94,600.17,609.59,21.31,0000 0000 0000 0000 000000
2017-02-04 09:39:17,0.12,4.06,0.00,21.21,24.69,28.21,14.91,50.02,1033.58,2036.88,2193.73,2189.40,2469.70,600.10,609.80,21.36,0000 0000 0000 0000 000000
2017-02-04 09:44:18,0.12,4.06,0.00,21.17,24.67,28.22,14.85,50.04,1033.64,2036.88,2192.20,2188.30,2468.40,600.11,609.96,21.41,0000 0000 0000 0000 000000
2017-02-04 09:49:19,0.12,4.07,0.00,21.20,24.67,28.22,14.85,50.07,1033.71,2036.85,2190.60,2187.24,2467.03,599.78,609.53,21.46,0000 0000 0000 0000 000000
2017-02-04 09:54:20,0.14,4.08,0.00,21.24,24.67,28.26,14.87,50.02,1033.71,2036.89,2189.00,2185.99,2465.55,599.83,609.58,21.51,0000 0000 0000 0000 000000
2017-02-04 09:59:21,0.12,4.08,0.00,21.20,24.67,28.23,14.86,50.01,1033.71,2036.90,2187.55,2184.90,2464.30,600.10,609.84,21.56,0000 0000 0000 0000 000000
2017-02-04 10:04:23,0.13,4.09,0.00,21.17,24.67,28.19,14.88,50.02,1033.71,2036.96,2186.00,2183.84,2463.00,600.52,610.25,21.61,0000 0000 0000 0000 000000
2017-02-04 10:09:24,0.14,4.10,0.00,21.20,24.66,28.18,14.84,50.00,1033.71,2036.96,2184.53,2182.72,2461.70,600.05,609.82,21.66,0000 0000 0000 0000 000000
2017-02-04 10:14:25,0.12,4.10,0.00,21.23,24.65,28.25,14.87,50.11,1033.72,2036.95,2182.97,2181.66,2460.45,600.04,609.77,21.71,0000 0000 0000 0000 000000
2017-02-04 10:19:27,0.12,4.11,0.00,21.15,24.65,28.23,14.92,50.08,1033.75,2036.96,2181.56,2180.67,2459.22,600.04,610.03,21.76,0000 0000 0000 0000 000000
2017-02-04 10:24:28,0.12,4.12,0.00,21.14,24.65,28.19,14.89,50.10,1033.99,2036.96,2180.07,2179.57,2457.87,600.19,610.22,21.81,0000 0000 0000 0000 000000
2017-02-04 10:29:29,0.14,4.12,0.00,21.18,24.65,28.23,14.83,49.99,1034.08,2036.96,2178.56,2178.49,2456.60,599.84,609.78,21.86,0000 0000 0000 0000 000000
2017-02-04 10:34:30,0.11,4.13,0.00,21.19,24.64,28.23,14.81,50.10,1034.17,2036.97,2177.06,2177.44,2455.32,599.47,609.54,21.91,0000 0000 0000 0000 000000
2017-02-04 10:39:32,0.14,4.14,0.00,21.15,24.63,28.20,14.86,50.07,1034.16,2036.96,2175.52,2176.24,2453.78,599.89,610.05,21.96,0000 0000 0000 0000 000000
2017-02-04 10:44:33,0.12,4.14,0.00,21.15,24.62,28.18,14.91,50.08,1034.18,2036.97,2174.01,2175.04,2452.47,599.94,609.99,22.01,0000 0000 0000 0000 000000
2017-02-04 10:49:34,0.12,4.15,0.00,21.18,24.62,28.20,14.91,50.11,1034.18,2036.95,2172.55,2174.01,2451.18,599.85,609.94,22.07,0000 0000 0000 0000 000000
2017-02-04 10:54:35,0.13,4.16,0.00,21.17,24.62,28.16,14.91,50.11,1034.19,2036.97,2170.99,2172.93,2449.85,599.87,609.97,22.12,0000 0000 0000 0000 000000
2017-02-04 10:59:37,0.13,4.16,0.00,21.11,24.62,28.20,14.89,49.97,1034.19,2036.97,2169.53,2171.87,2448.61,600.24,610.37,22.17,0000 0000 0000 0000 000000
2017-02-04 11:04:38,0.13,4.17,0.00,21.12,24.62,28.19,14.89,50.04,1034.19,2036.98,2167.98,2170.79,2447.41,599.95,610.28,22.22,0000 0000 0000 0000 000000
2017-02-04 11:09:39,0.12,4.17,0.00,21.17,24.61,28.16,14.84,49.94,1034.19,2036.98,2166.50,2169.72,2446.11,599.83,609.91,22.27,0000 0000 0000 0000 000000
2017-02-04 11:14:40,0.11,4.18,0.00,21.15,24.60,28.16,14.95,50.02,1034.20,2036.99,2165.04,2168.73,2444.83,600.30,610.48,22.32,0000 0000 0000 0000 000000
2017-02-04 11:19:41,0.14,4.19,0.00,21.10,24.60,28.12,14.87,50.05,1034.20,2036.99,2163.54,2167.65,2443.57,599.91,609.97,22.37,0000 0000 0000 0000 000000
2017-02-04 11:24:43,0.12,4.19,0.00,21.10,24.60,28.13,14.89,49.89,1034.22,2036.97,2161.97,2166.54,2442.31,599.81,610.04,22.42,0000 0000 0000 0000 000000
2017-02-04 11:29:44,0.12,4.20,0.00,21.17,24.60,28.13,14.89,49.89,1034.24,2036.98,2160.60,2165.50,2441.05,599.90,610.09,22.47,0000 0000 0000 0000 000000
2017-02-04 11:34:45,0.12,4.21,0.00,21.13,24.59,28.16,14.87,49.92,1034.32,2036.99,2159.15,2164.47,2439.79,599.89,610.17,22.52,0000 0000 0000 0000 000000
2017-02-04 11:39:47,0.13,4.21,0.00,21.09,24.58,28.15,14.91,49.92,1034.38,2036.99,2157.63,2163.42,2438.50,599.84,610.10,22.57,0000 0000 0000 0000 000000
2017-02-04 11:44:48,0.12,4.22,0.00,21.12,24.57,28.14,14.86,49.98,1034.43,2036.99,2156.08,2162.27,2437.17,600.29,610.62,22.62,0000 0000 0000 0000 000000
2017-02-04 11:49:49,0.13,4.23,0.00,21.16,24.57,28.14,14.89,49.88,1034.67,2036.98,2154.58,2161.18,2435.80,599.85,610.26,22.67,0000 0000 0000 0000 000000
2017-02-04 11:54:51,0.12,4.23,0.00,21.09,24.57,28.16,14.91,49.87,1034.68,2036.99,2153.00,2160.11,2434.52,600.27,610.94,22.72,0000 0000 0000 0000 000000
2017-02-04 11:59:52,0.12,4.24,0.00,21.08,24.57,28.16,14.91,49.97,1034.68,2036.99,2151.55,2159.04,2433.31,599.79,610.35,22.77,0000 0000 0000 0000 000000
2017-02-04 12:04:53,0.13,4.25,0.00,21.13,24.56,28.17,14.86,50.04,1034.68,2036.99,2149.97,2157.91,2432.01,600.02,610.53,22.82,0000 0000 0000 0000 000000
2017-02-04 12:09:55,0.15,4.25,0.00,21.16,24.55,28.13,14.86,49.96,1034.68,2036.99,2148.44,2156.73,2430.67,599.93,610.34,22.87,0000 0000 0000 0000 000000
2017-02-04 12:14:56,0.14,4.26,0.00,21.10,24.55,28.14,14.89,50.09,1034.68,2036.99,2146.84,2155.54,2429.31,599.71,610.18,22.92,0000 0000 0000 0000 000000
2017-02-04 12:19:57,0.12,4.27,0.00,21.08,24.55,28.12,14.87,50.13,1034.69,2036.99,2145.36,2154.41,2427.94,599.82,610.47,22.97,0000 0000 0000 0000 000000
2017-02-04 12:24:59,0.14,4.28,0.00,21.11,24.55,28.15,14.93,50.12,1034.71,2036.99,2143.77,2153.29,2426.61,599.78,610.23,23.02,0000 0000 0000 0000 000000
2017-02-04 12:30:00,0.11,4.28,0.00,21.13,24.54,28.15,14.88,50.05,1034.77,2036.99,2142.28,2152.24,2425.43,599.70,610.30,23.07,0000 0000 0000 0000 000000
2017-02-04 12:35:01,0.13,4.29,0.00,21.07,24.53,28.13,14.91,49.99,1034.92,2036.99,2140.71,2151.11,2424.05,600.08,610.75,23.12,0000 0000 0000 0000 000000
2017-02-04 12:40:03,0.12,4.30,0.00,21.06,24.52,28.11,14.87,49.93,1035.08,2036.99,2139.31,2150.05,2422.77,599.62,610.35,23.17,0000 0000 0000 0000 000000
2017-02-04 12:45:04,0.14,4.30,0.00,21.11,24.52,28.12,14.90,50.01,1035.13,2036.99,2137.81,2148.97,2421.54,599.90,610.68,23.22,0000 0000 0000 0000 000000
2017-02-04 12:50:05,0.12,4.31,0.00,21.14,24.52,28.10,14.91,50.11,1035.17,2036.99,2136.32,2147.90,2420.24,600.16,610.97,23.27,0000 0000 0000 0000 000000
2017-02-04 12:55:07,0.15,4.32,0.00,21.07,24.52,28.11,14.91,50.05,1035.17,2036.99,2134.75,2146.80,2418.93,600.12,611.04,23.32,0000 0000 0000 0000 000000